Voltar ao catálogo

METEOR 1-15

AtivoMeteoPO
NORAD 6659·PAYLOAD·🇷🇺 Russia

Lançado May 29, 1973 de Plesetsk Cosmodrome

Loading…

Próximas Passagens (próximas 24 horas)

TLE

AtualizadoSource: Space-Track

Época: Sep 14, 2026, 04:45 UTC

1 06659U 73034A   26257.19805482  .00000215  00000-0  11318-3 0  9997
2 06659  81.1908 158.8275 0027960 151.4575 208.8135 14.10559896739973

Acompanhe METEOR 1-15 em tempo real com AllMySat

Download on the App Store